Regional Weather Roundup
Issued by NWS

Home | Current Version | Previous Version | Graphics & Text | Print | Product List | Glossary On
Versions: 1 2 3 4 5 6 7 8 9 10 11 12 13 14 15 16 17 18 19 20 21 22 23 24 25 26 27 28
000
ASUS45 KSLC 242310
RWRUT

UTAH REGIONAL WEATHER ROUNDUP
NATIONAL WEATHER SERVICE SALT LAKE CITY UT
500 PM MDT THU MAY 24 2018

UTZ001>011-023>025-250000-

NORTHERN UTAH

CITY           SKY/WX    TMP DP  RH WIND       PRES   REMARKS
BRIGHAM CITY   SUNNY     82  29  14 S7        30.05F
HILL AFB       MOSUNNY   80  38  21 SW9       30.06F
LOGAN          SUNNY     80  44  27 VRB5      30.05F
OGDEN          SUNNY     81  37  20 SW10      30.04F
SALT LAKE CITY MOSUNNY   85  35  16 CALM      30.01F
TOOELE VALLEY  SUNNY     81  46  30 N10       30.03F
WENDOVER       SUNNY     83  35  18 E8        30.02F
HEBER CITY       N/A     81  28  15 SW12      30.10S
WEST JORDAN    SUNNY     82  41  22 SE5       30.05F

$$

UTZ011>015-024>027-250000-

CENTRAL/NORTHEAST UTAH

CITY           SKY/WX    TMP DP  RH WIND       PRES   REMARKS
PROVO AIRPORT  MOSUNNY   82  27  13 CALM      30.05F
MOAB/CANYONLAN SUNNY     86  21   9 W7        30.01F
DELTA          SUNNY     82  27  13 SW8       30.04F
PRICE          MOSUNNY   81  24  12 VRB5      30.11F
ROOSEVELT      MOSUNNY   84  30  14 CALM      30.09F
VERNAL         MOSUNNY   80  36  20 N9        30.08F

$$

UTZ013>016-019>022-027-250000-

SOUTHERN UTAH

CITY           SKY/WX    TMP DP  RH WIND       PRES   REMARKS
BRYCE CANYON   SUNNY     73  21  14 SE18G25   30.24F
CEDAR CITY     SUNNY     82  13   7 S13G22    30.08F
MILFORD        SUNNY     85  16   7 SW16G22   30.03F
ST GEORGE      CLEAR     92  24   8 W15       29.92F
HANKSVILLE     SUNNY     90  23   9 SE9G16    30.03F
BLANDING         N/A     81  19  10 S9G18     30.21F

$$

REGIONAL REPORTS     COLORADO/ARIZONA

CITY           SKY/WX    TMP DP  RH WIND       PRES   REMARKS
CRAIG, CO      MOSUNNY   78  32  18 W15G22    30.16F
GRAND JUNCTION SUNNY     85  25  11 W7        30.04F
RIFLE, CO      MOSUNNY   84  18   8 W16       30.09F
MONTROSE, CO   SUNNY     82  21  10 NW12      30.11F
CORTEZ, CO     SUNNY     83  16   8 SW12      30.14F
COLORADO CITY    N/A     88  21   8 SW10      30.08F
PAGE, AZ       SUNNY     89  23   9 NE9       30.01F
GRAND CANYON   SUNNY     79  17  10 S17G24    30.19F
KINGMAN, AZ    SUNNY     88  20   8 SW21G30   30.01F
FLAGSTAFF, AZ  SUNNY     74  24  15 S16G32    30.24F

$$

REGIONAL REPORTS    NEVADA/IDAHO/WYOMING

CITY           SKY/WX    TMP DP  RH WIND       PRES   REMARKS
LAS VEGAS, NV  MOSUNNY   92  32  12 S13       29.89F
ELY, NY        SUNNY     76  26  15 S17G25    30.11F
ELKO, NV       SUNNY     80  39  23 SW10G17   30.03F
POCATELLO, ID  PTSUNNY   75  49  39 S17       30.07F
BURLEY, ID     MOSUNNY   81  46  29 VRB3      30.03F
FORT BRIDGER,    N/A     76  32  20 W10       30.22F
EVANSTON, WY   SUNNY     70  36  28 W7        30.21S
ROCK SPRINGS,  PTSUNNY   70  34  26 W7G22     30.18F

$$




USA.gov is the U.S. government's official web portal to all federal, state and local government web resources and services.